Location: Glen Avon
(34.0117°N, 117.4848°W)
Time: 14:56:21
(UTC+00:00)

USA 215 - Pass Details

Date: 01 August 2021
Orbit: 1100 x 1107 km, 123.0° (Epoch: 01 August)

Event Time Altitude Azimuth Distance (km) Brightness Sun altitude
Rises 12:17:03 0° 40° (NE) 3,921 7.7 -9.2°
Reaches altitude 10° 12:19:32 10° 39° (NE) 2,960 6.8 -8.7°
Maximum altitude 12:26:03 76° 316° (NW) 1,134 3.3 -7.5°
Drops below altitude 10° 12:32:33 10° 231° (SW) 2,947 4.9 -6.3°
Enters shadow 12:33:27 - 231° (SW) 3,292 5.1 -6.2°
